contact:dominique.lefevre@mio.osupytheas.fr, maurice.libes@osupytheas.fr, didier.mallarino@osupytheas.fr
Project:EMSO http://www.emso-fr.org/EMSO-France
Depth: 2436.0 m
Title:EMSO Ligure Ouest : Data MII capteur AQUADOPP
Date,Latitude,Longitude,X_East,Y_North,Z_Up,Amplitude_X,Amplitude_Y,Amplitude_Z,Batterie,SoundSpeed,Heading,Pitch,Roll,Pressure,TIS,Speed,Direction
, degrees North, degrees East, m.s-1, m.s-1,m.s-1, 1, 1, 1, Volt, m.s-1, degree, degree, degree, dbar, degree_C, m.s-1, degree
2023-09-08T00:04:03,42.805,6.029,-0.026,0.057,0.0,104.0,106.0,102.0,13.4,1505.2,349.3,-0.8,1.8,2471.556,13.28,0.062,335.5
2023-09-08T00:07:03,42.805,6.029,-0.062,0.05,0.021,105.0,103.0,102.0,13.4,1505.2,334.9,-0.8,1.8,2471.578,13.29,0.079,308.9
2023-09-08T00:10:03,42.805,6.029,-0.046,0.042,-0.029,105.0,102.0,103.0,13.3,1505.2,342.5,-0.8,1.8,2471.532,13.29,0.062,312.4
2023-09-08T00:13:03,42.805,6.029,-0.032,0.051,0.029,103.0,103.0,102.0,13.4,1505.2,347.0,-0.8,1.8,2471.58,13.29,0.06,327.9
2023-09-08T00:16:03,42.805,6.029,-0.027,0.042,-0.009,104.0,102.0,102.0,13.3,1505.2,352.0,-0.8,1.8,2471.556,13.29,0.049,327.3
2023-09-08T00:19:03,42.805,6.029,-0.051,0.058,-0.033,105.0,103.0,102.0,13.3,1505.2,352.6,-0.8,1.8,2471.516,13.29,0.077,318.7
2023-09-08T00:22:03,42.805,6.029,-0.024,0.096,0.028,103.0,105.0,102.0,13.4,1505.2,355.6,-0.8,1.8,2471.547,13.29,0.098,346.0
2023-09-08T00:25:03,42.805,6.029,-0.066,0.059,-0.032,103.0,105.0,102.0,13.3,1505.2,340.1,-0.8,1.8,2471.469,13.29,0.088,311.8
2023-09-08T00:28:03,42.805,6.029,-0.054,0.043,0.005,104.0,105.0,102.0,13.4,1505.2,343.4,-0.8,1.8,2471.515,13.29,0.069,308.5
2023-09-08T00:31:03,42.805,6.029,-0.053,0.033,-0.027,103.0,103.0,103.0,13.4,1505.2,331.1,-0.7,1.8,2471.524,13.29,0.062,301.9
2023-09-08T00:34:03,42.805,6.029,-0.064,0.042,-0.008,103.0,104.0,102.0,13.3,1505.2,331.4,-0.8,1.8,2471.542,13.29,0.076,303.3
2023-09-08T00:37:03,42.805,6.029,-0.059,0.03,-0.013,104.0,103.0,102.0,13.4,1505.2,330.5,-0.8,1.8,2471.546,13.29,0.066,296.9
2023-09-08T00:40:03,42.805,6.029,-0.049,0.057,-0.007,104.0,103.0,102.0,13.4,1505.2,350.9,-0.8,1.8,2471.522,13.29,0.075,319.3
2023-09-08T00:43:03,42.805,6.029,-0.072,0.049,-0.009,105.0,106.0,102.0,13.4,1505.2,326.8,-0.8,1.8,2471.533,13.29,0.087,304.2
2023-09-08T00:46:03,42.805,6.029,-0.065,0.045,-0.013,103.0,105.0,102.0,13.4,1505.2,332.9,-0.8,1.8,2471.528,13.29,0.079,304.7
2023-09-08T00:49:03,42.805,6.029,-0.032,0.036,-0.016,104.0,104.0,102.0,13.3,1505.2,337.9,-0.8,1.8,2471.52,13.29,0.048,318.4
2023-09-08T00:52:03,42.805,6.029,-0.058,0.05,-0.026,105.0,103.0,102.0,13.4,1505.2,333.9,-0.8,1.8,2471.53,13.29,0.076,310.8
2023-09-08T00:55:03,42.805,6.029,-0.035,0.073,-0.004,102.0,102.0,102.0,13.4,1505.2,352.0,-0.7,1.8,2471.482,13.29,0.08,334.4
2023-09-08T00:58:03,42.805,6.029,-0.062,0.053,-0.022,102.0,104.0,102.0,13.4,1505.2,337.0,-0.8,1.8,2471.524,13.29,0.081,310.5
2023-09-08T02:04:02,42.805,6.029,-0.026,0.05,0.014,103.0,104.0,102.0,13.3,1505.1,353.7,-0.8,1.8,2471.993,13.27,0.056,332.5
2023-09-08T02:07:03,42.805,6.029,-0.042,0.047,0.007,102.0,102.0,102.0,13.4,1505.2,335.4,-0.8,1.8,2471.953,13.28,0.063,318.2
2023-09-08T02:10:03,42.805,6.029,-0.024,0.072,0.0,102.0,103.0,102.0,13.4,1505.2,342.8,-0.7,1.8,2471.853,13.28,0.075,341.6
2023-09-08T02:13:03,42.805,6.029,-0.042,0.045,-0.026,101.0,102.0,102.0,13.4,1505.2,354.6,-0.8,1.8,2471.801,13.28,0.061,317.0
2023-09-08T02:16:03,42.805,6.029,-0.071,0.06,-0.007,103.0,105.0,102.0,13.3,1505.2,326.8,-0.7,1.8,2471.738,13.28,0.092,310.2
2023-09-08T02:19:03,42.805,6.029,-0.069,0.042,0.001,102.0,102.0,102.0,13.4,1505.2,326.0,-0.8,1.8,2471.638,13.29,0.08,301.3
2023-09-08T02:22:03,42.805,6.029,-0.048,0.054,0.0,102.0,107.0,102.0,13.4,1505.2,333.4,-0.8,1.8,2471.625,13.29,0.072,318.4
2023-09-08T02:25:03,42.805,6.029,-0.055,0.065,-0.003,103.0,102.0,101.0,13.4,1505.2,342.8,-0.7,1.8,2471.564,13.29,0.085,319.8
2023-09-08T02:28:03,42.805,6.029,-0.054,0.066,-0.02,103.0,103.0,102.0,13.4,1505.2,345.1,-0.8,1.9,2471.578,13.29,0.085,320.7
2023-09-08T02:31:03,42.805,6.029,-0.06,0.038,-0.011,102.0,104.0,102.0,13.4,1505.2,341.5,-0.7,1.8,2471.562,13.29,0.071,302.3
2023-09-08T02:34:03,42.805,6.029,-0.055,0.073,0.016,103.0,105.0,101.0,13.4,1505.2,338.2,-0.8,1.8,2471.486,13.29,0.091,323.0
2023-09-08T02:37:03,42.805,6.029,-0.05,0.047,0.027,103.0,103.0,103.0,13.4,1505.2,325.7,-0.7,1.8,2471.535,13.29,0.068,313.2
2023-09-08T02:40:03,42.805,6.029,-0.068,0.056,-0.021,102.0,103.0,103.0,13.4,1505.2,332.1,-0.8,1.8,2471.503,13.29,0.088,309.5
2023-09-08T02:43:03,42.805,6.029,-0.035,0.019,0.0,103.0,104.0,102.0,13.4,1505.2,330.6,-0.8,1.8,2471.483,13.29,0.039,298.5
2023-09-08T02:46:03,42.805,6.029,-0.076,0.066,0.009,104.0,105.0,102.0,13.3,1505.2,327.4,-0.8,1.8,2471.489,13.29,0.1,311.0
2023-09-08T02:49:03,42.805,6.029,-0.046,0.039,-0.003,103.0,107.0,101.0,13.4,1505.2,338.6,-0.8,1.8,2471.497,13.29,0.06,310.3
2023-09-08T02:52:03,42.805,6.029,-0.035,0.048,-0.01,103.0,104.0,102.0,13.4,1505.2,346.4,-0.8,1.8,2471.508,13.29,0.059,323.9
2023-09-08T02:55:03,42.805,6.029,-0.095,0.043,-0.005,103.0,104.0,101.0,13.3,1505.2,326.5,-0.7,1.8,2471.458,13.29,0.104,294.4
2023-09-08T02:58:03,42.805,6.029,-0.034,0.062,0.032,102.0,103.0,101.0,13.4,1505.2,328.8,-0.8,1.8,2471.492,13.29,0.07,331.3
2023-09-08T03:01:03,42.805,6.029,-0.031,0.023,-0.015,103.0,105.0,101.0,13.4,1505.2,344.5,-0.8,1.8,2471.484,13.29,0.038,306.6
2023-09-08T03:04:03,42.805,6.029,-0.06,0.067,0.002,102.0,104.0,102.0,13.4,1505.2,336.8,-0.8,1.8,2471.498,13.29,0.089,318.2
2023-09-08T03:07:03,42.805,6.029,-0.063,0.072,0.013,102.0,106.0,101.0,13.4,1505.2,341.5,-0.7,1.8,2471.502,13.29,0.095,318.8
2023-09-08T03:10:03,42.805,6.029,-0.048,0.062,-0.026,102.0,103.0,102.0,13.4,1505.2,355.6,-0.8,1.8,2471.513,13.29,0.078,322.3
2023-09-08T03:13:03,42.805,6.029,-0.039,0.074,-0.029,103.0,103.0,102.0,13.4,1505.2,349.6,-0.8,1.8,2471.504,13.29,0.083,332.2
2023-09-08T03:16:03,42.805,6.029,-0.063,0.053,-0.024,101.0,105.0,102.0,13.3,1505.2,334.4,-0.8,1.8,2471.437,13.29,0.082,310.1
2023-09-08T03:19:03,42.805,6.029,-0.023,0.051,-0.014,102.0,104.0,102.0,13.3,1505.2,348.4,-0.8,1.8,2471.484,13.29,0.055,335.7
2023-09-08T03:22:03,42.805,6.029,-0.064,0.074,-0.006,103.0,104.0,101.0,13.4,1505.2,349.3,-0.7,1.8,2471.469,13.29,0.097,319.1
2023-09-08T03:25:03,42.805,6.029,-0.059,0.035,-0.031,102.0,104.0,102.0,13.4,1505.2,330.1,-0.7,1.8,2471.479,13.29,0.068,300.7
2023-09-08T03:28:03,42.805,6.029,-0.028,0.037,-0.026,102.0,103.0,101.0,13.4,1505.2,347.8,-0.8,1.8,2471.464,13.29,0.046,322.9
2023-09-08T03:31:03,42.805,6.029,-0.051,0.075,-0.004,102.0,105.0,102.0,13.3,1505.2,336.9,-0.7,1.8,2471.513,13.29,0.09,325.8
2023-09-08T03:34:03,42.805,6.029,-0.062,0.041,-0.037,102.0,103.0,101.0,13.4,1505.2,324.1,-0.8,1.8,2471.497,13.29,0.074,303.5
2023-09-08T03:37:03,42.805,6.029,-0.045,0.065,0.017,103.0,102.0,102.0,13.4,1505.2,332.5,-0.8,1.8,2471.495,13.29,0.079,325.3
2023-09-08T03:40:03,42.805,6.029,-0.03,0.056,-0.012,103.0,103.0,101.0,13.4,1505.2,355.6,-0.8,1.8,2471.48,13.29,0.063,331.8
2023-09-08T03:43:03,42.805,6.029,-0.051,0.035,-0.019,103.0,105.0,101.0,13.3,1505.2,325.8,-0.8,1.8,2471.493,13.29,0.061,304.5
2023-09-08T03:46:03,42.805,6.029,-0.018,0.071,-0.008,102.0,105.0,102.0,13.4,1505.2,350.2,-0.8,1.8,2471.443,13.29,0.073,345.8
2023-09-08T03:49:03,42.805,6.029,-0.049,0.072,-0.001,103.0,102.0,101.0,13.3,1505.2,345.9,-0.8,1.8,2471.493,13.29,0.087,325.8
2023-09-08T03:52:03,42.805,6.029,-0.051,0.028,-0.017,102.0,103.0,101.0,13.4,1505.2,331.1,-0.8,1.8,2471.451,13.29,0.058,298.8
2023-09-08T03:55:03,42.805,6.029,-0.033,0.054,-0.019,102.0,104.0,102.0,13.4,1505.2,356.7,-0.8,1.8,2471.494,13.29,0.063,328.6
2023-09-08T03:58:03,42.805,6.029,-0.028,0.061,0.019,102.0,104.0,101.0,13.4,1505.2,332.4,-0.8,1.8,2471.49,13.29,0.067,335.3
2023-09-08T04:04:03,42.805,6.029,-0.048,0.066,-0.005,102.0,104.0,102.0,13.4,1505.2,337.8,-0.8,1.8,2471.527,13.28,0.081,324.0
2023-09-08T04:07:03,42.805,6.029,-0.06,0.047,-0.004,104.0,104.0,102.0,13.4,1505.2,324.0,-0.7,1.8,2471.513,13.28,0.076,308.1
2023-09-08T04:10:03,42.805,6.029,-0.047,0.075,0.01,103.0,104.0,101.0,13.4,1505.2,342.9,-0.7,1.8,2471.548,13.29,0.088,327.9
2023-09-08T04:13:03,42.805,6.029,-0.002,0.056,-0.017,103.0,104.0,101.0,13.4,1505.2,353.2,-0.8,1.8,2471.492,13.29,0.056,358.0
2023-09-08T04:16:03,42.805,6.029,-0.034,0.063,0.024,103.0,105.0,101.0,13.3,1505.2,330.8,-0.8,1.8,2471.466,13.29,0.071,331.6
2023-09-08T04:19:03,42.805,6.029,-0.045,0.057,0.0,102.0,104.0,102.0,13.4,1505.2,339.7,-0.8,1.8,2471.477,13.29,0.072,321.7
2023-09-08T04:22:03,42.805,6.029,-0.039,0.061,-0.027,104.0,105.0,101.0,13.3,1505.2,354.7,-0.8,1.8,2471.493,13.29,0.072,327.4
2023-09-08T04:25:03,42.805,6.029,-0.04,0.024,-0.002,101.0,104.0,101.0,13.3,1505.2,323.3,-0.8,1.7,2471.498,13.29,0.046,301.0
2023-09-08T04:28:03,42.805,6.029,-0.032,0.061,0.0,102.0,102.0,101.0,13.4,1505.2,349.3,-0.7,1.8,2471.493,13.29,0.068,332.3
2023-09-08T04:31:03,42.805,6.029,-0.048,0.036,-0.021,103.0,102.0,101.0,13.4,1505.2,332.5,-0.8,1.8,2471.504,13.29,0.06,306.9
2023-09-08T04:34:03,42.805,6.029,-0.029,0.039,0.0,102.0,102.0,101.0,13.4,1505.2,343.4,-0.8,1.8,2471.463,13.29,0.048,323.4
2023-09-08T04:37:03,42.805,6.029,-0.04,0.028,-0.031,103.0,102.0,101.0,13.4,1505.2,336.0,-0.8,1.8,2471.467,13.29,0.048,305.0
2023-09-08T04:40:03,42.805,6.029,-0.03,0.049,0.005,103.0,103.0,100.0,13.4,1505.2,354.6,-0.7,1.9,2471.472,13.29,0.057,328.5
2023-09-08T04:43:03,42.805,6.029,-0.05,0.041,0.002,103.0,104.0,101.0,13.4,1505.2,323.8,-0.7,1.8,2471.505,13.29,0.064,309.3
2023-09-08T04:46:03,42.805,6.029,-0.057,0.033,-0.018,104.0,105.0,100.0,13.4,1505.2,333.8,-0.8,1.8,2471.529,13.29,0.065,300.1
2023-09-08T04:49:03,42.805,6.029,-0.05,0.041,0.004,101.0,103.0,101.0,13.4,1505.2,339.3,-0.8,1.8,2471.491,13.29,0.064,309.3
2023-09-08T04:52:03,42.805,6.029,-0.061,0.035,-0.05,103.0,102.0,101.0,13.3,1505.2,338.5,-0.8,1.8,2471.464,13.29,0.07,299.8
2023-09-08T04:55:03,42.805,6.029,-0.032,0.037,-0.008,102.0,104.0,101.0,13.4,1505.2,334.3,-0.7,1.8,2471.479,13.29,0.048,319.1
2023-09-08T04:58:03,42.805,6.029,-0.035,0.047,-0.006,102.0,104.0,100.0,13.4,1505.2,342.1,-0.8,1.8,2471.483,13.29,0.058,323.3
2023-09-08T05:04:03,42.805,6.029,-0.023,0.024,-0.019,102.0,102.0,101.0,13.4,1505.2,330.7,-0.8,1.8,2471.554,13.28,0.033,316.2
2023-09-08T05:07:03,42.805,6.029,-0.047,0.058,0.002,102.0,102.0,100.0,13.3,1505.2,338.4,-0.8,1.8,2471.503,13.28,0.074,321.0
2023-09-08T05:10:03,42.805,6.029,-0.037,0.049,-0.001,102.0,102.0,100.0,13.3,1505.2,346.7,-0.8,1.8,2471.501,13.29,0.061,322.9
2023-09-08T05:13:03,42.805,6.029,-0.049,0.03,-0.037,102.0,102.0,101.0,13.3,1505.2,331.6,-0.8,1.8,2471.507,13.29,0.057,301.5
2023-09-08T05:16:03,42.805,6.029,-0.041,0.033,-0.027,102.0,103.0,100.0,13.4,1505.2,330.6,-0.8,1.8,2471.525,13.29,0.052,308.8
2023-09-08T05:19:03,42.805,6.029,-0.041,0.057,-0.005,101.0,104.0,101.0,13.4,1505.2,333.8,-0.7,1.8,2471.495,13.29,0.07,324.3
2023-09-08T05:22:03,42.805,6.029,-0.042,0.039,-0.009,101.0,103.0,100.0,13.4,1505.2,331.1,-0.8,1.8,2471.51,13.29,0.057,312.9
2023-09-08T05:25:03,42.805,6.029,-0.035,0.05,0.007,102.0,102.0,100.0,13.3,1505.2,352.3,-0.8,1.8,2471.484,13.29,0.061,325.0
2023-09-08T05:28:03,42.805,6.029,-0.046,0.015,-0.048,102.0,100.0,101.0,13.3,1505.2,343.0,-0.8,1.8,2471.469,13.29,0.048,288.1
2023-09-08T05:31:03,42.805,6.029,-0.02,0.07,-0.009,103.0,102.0,101.0,13.4,1505.2,354.5,-0.8,1.8,2471.495,13.29,0.072,344.1
2023-09-08T05:34:03,42.805,6.029,-0.014,0.069,-0.008,103.0,102.0,101.0,13.4,1505.2,351.2,-0.8,1.8,2471.469,13.29,0.07,348.5
2023-09-08T05:37:03,42.805,6.029,-0.053,0.052,-0.012,102.0,102.0,101.0,13.4,1505.2,331.3,-0.8,1.8,2471.5,13.29,0.074,314.5
2023-09-08T05:40:03,42.805,6.029,-0.06,0.023,-0.044,102.0,101.0,101.0,13.3,1505.2,335.9,-0.8,1.8,2471.493,13.29,0.064,291.0
2023-09-08T05:43:03,42.805,6.029,-0.028,0.021,-0.011,102.0,100.0,102.0,13.4,1505.2,328.2,-0.8,1.8,2471.456,13.29,0.035,306.9
2023-09-08T05:46:03,42.805,6.029,-0.031,0.047,-0.016,101.0,102.0,101.0,13.4,1505.2,340.7,-0.8,1.8,2471.446,13.29,0.056,326.6
2023-09-08T05:49:03,42.805,6.029,-0.041,0.058,-0.013,103.0,102.0,101.0,13.4,1505.2,347.1,-0.7,1.8,2471.45,13.29,0.071,324.7
2023-09-08T05:52:03,42.805,6.029,-0.045,0.056,-0.003,100.0,103.0,101.0,13.3,1505.2,345.6,-0.8,1.8,2471.467,13.29,0.071,321.2
2023-09-08T05:55:03,42.805,6.029,-0.027,0.064,0.008,102.0,103.0,100.0,13.3,1505.2,352.3,-0.8,1.8,2471.491,13.29,0.069,337.1
2023-09-08T05:58:03,42.805,6.029,-0.031,0.061,-0.022,103.0,104.0,100.0,13.4,1505.2,352.7,-0.7,1.8,2471.443,13.29,0.068,333.1
2023-09-08T06:04:03,42.805,6.029,-0.05,0.038,-0.003,102.0,102.0,101.0,13.4,1505.2,327.3,-0.8,1.8,2471.539,13.28,0.062,307.2
2023-09-08T06:07:03,42.805,6.029,-0.061,0.047,-0.033,101.0,102.0,101.0,13.4,1505.2,329.8,-0.8,1.8,2471.529,13.28,0.077,307.6
2023-09-08T06:10:03,42.805,6.029,-0.06,0.042,0.004,102.0,101.0,102.0,13.4,1505.2,332.9,-0.8,1.8,2471.482,13.29,0.073,305.0
2023-09-08T06:13:03,42.805,6.029,-0.043,0.053,0.003,102.0,103.0,100.0,13.3,1505.2,339.4,-0.8,1.8,2471.459,13.29,0.068,320.9
2023-09-08T06:16:03,42.805,6.029,-0.026,0.052,0.011,100.0,105.0,102.0,13.4,1505.2,344.5,-0.8,1.8,2471.486,13.29,0.058,333.4
2023-09-08T06:19:03,42.805,6.029,-0.032,0.035,-0.027,102.0,101.0,101.0,13.4,1505.2,343.9,-0.8,1.8,2471.485,13.29,0.047,317.6
2023-09-08T06:22:03,42.805,6.029,-0.028,0.023,-0.027,102.0,102.0,101.0,13.4,1505.2,327.4,-0.8,1.8,2471.501,13.29,0.036,309.4
2023-09-08T06:25:03,42.805,6.029,-0.056,0.028,-0.006,102.0,103.0,101.0,13.4,1505.2,324.1,-0.8,1.8,2471.485,13.29,0.062,296.6
2023-09-08T06:28:03,42.805,6.029,-0.067,0.034,-0.024,102.0,102.0,101.0,13.4,1505.2,331.3,-0.8,1.8,2471.459,13.29,0.075,296.9
2023-09-08T06:31:03,42.805,6.029,-0.015,0.03,0.003,102.0,102.0,101.0,13.3,1505.2,341.2,-0.8,1.8,2471.46,13.29,0.033,333.4
2023-09-08T06:34:03,42.805,6.029,-0.031,0.044,-0.017,102.0,102.0,101.0,13.4,1505.2,340.9,-0.8,1.8,2471.489,13.29,0.053,324.8
2023-09-08T06:37:03,42.805,6.029,-0.046,0.03,-0.014,101.0,102.0,101.0,13.4,1505.2,338.6,-0.8,1.8,2471.43,13.29,0.054,303.1
2023-09-08T06:40:03,42.805,6.029,-0.036,0.044,-0.007,102.0,102.0,101.0,13.4,1505.2,334.6,-0.8,1.8,2471.479,13.29,0.056,320.7
2023-09-08T06:43:03,42.805,6.029,-0.027,0.039,-0.016,102.0,101.0,101.0,13.3,1505.2,340.5,-0.8,1.8,2471.455,13.29,0.047,325.3
2023-09-08T06:46:03,42.805,6.029,-0.05,0.066,0.012,103.0,102.0,100.0,13.3,1505.2,339.4,-0.7,1.8,2471.501,13.29,0.082,322.8
2023-09-08T06:49:03,42.805,6.029,-0.045,0.036,-0.013,102.0,101.0,101.0,13.4,1505.2,334.2,-0.7,1.8,2471.499,13.29,0.057,308.7
2023-09-08T06:52:03,42.805,6.029,-0.049,0.038,0.003,102.0,102.0,101.0,13.3,1505.2,326.0,-0.8,1.8,2471.454,13.29,0.062,307.8
2023-09-08T06:55:03,42.805,6.029,-0.011,0.023,-0.014,101.0,102.0,100.0,13.3,1505.2,339.2,-0.7,1.8,2471.444,13.29,0.025,334.4
2023-09-08T06:58:03,42.805,6.029,-0.048,0.053,-0.014,102.0,103.0,100.0,13.4,1505.2,342.8,-0.8,1.8,2471.473,13.29,0.071,317.8
2023-09-08T07:04:03,42.805,6.029,-0.049,0.013,-0.036,102.0,102.0,102.0,13.3,1505.2,332.9,-0.8,1.8,2471.521,13.28,0.05,284.9
2023-09-08T07:07:03,42.805,6.029,-0.039,0.031,0.001,102.0,102.0,102.0,13.4,1505.2,339.0,-0.8,1.8,2471.504,13.29,0.049,308.5
2023-09-08T07:10:03,42.805,6.029,-0.047,0.034,-0.001,102.0,102.0,101.0,13.4,1505.2,332.2,-0.8,1.8,2471.5,13.29,0.058,305.9
2023-09-08T07:13:03,42.805,6.029,-0.033,0.029,-0.044,101.0,102.0,101.0,13.4,1505.2,346.2,-0.8,1.8,2471.514,13.29,0.043,311.3
2023-09-08T07:16:03,42.805,6.029,-0.043,0.025,-0.05,103.0,101.0,101.0,13.4,1505.2,340.9,-0.8,1.8,2471.448,13.29,0.049,300.2
2023-09-08T07:19:03,42.805,6.029,-0.011,0.05,0.005,101.0,100.0,102.0,13.4,1505.2,343.9,-0.8,1.8,2471.454,13.29,0.051,347.6
2023-09-08T07:22:03,42.805,6.029,-0.059,0.051,0.011,103.0,102.0,100.0,13.3,1505.2,339.1,-0.8,1.8,2471.461,13.29,0.077,310.8
2023-09-08T07:25:03,42.805,6.029,-0.024,0.048,0.003,102.0,102.0,101.0,13.3,1505.2,340.4,-0.8,1.8,2471.442,13.29,0.053,333.4
2023-09-08T07:28:03,42.805,6.029,-0.041,0.025,-0.04,102.0,101.0,101.0,13.4,1505.2,328.2,-0.7,1.8,2471.451,13.29,0.048,301.4
2023-09-08T07:31:03,42.805,6.029,-0.058,0.049,-0.021,101.0,101.0,101.0,13.4,1505.2,335.1,-0.8,1.8,2471.445,13.29,0.075,310.2
2023-09-08T07:34:03,42.805,6.029,-0.037,0.056,-0.026,101.0,103.0,101.0,13.4,1505.2,350.5,-0.8,1.8,2471.448,13.29,0.067,326.5
2023-09-08T07:37:03,42.805,6.029,-0.055,0.029,-0.016,102.0,102.0,101.0,13.3,1505.2,325.1,-0.8,1.8,2471.482,13.29,0.062,297.8
2023-09-08T07:40:03,42.805,6.029,-0.04,0.031,-0.03,102.0,102.0,100.0,13.4,1505.2,327.6,-0.8,1.8,2471.472,13.29,0.05,307.8
2023-09-08T07:43:03,42.805,6.029,-0.03,0.021,-0.027,102.0,102.0,101.0,13.3,1505.2,324.0,-0.8,1.8,2471.46,13.29,0.036,305.0
2023-09-08T07:46:03,42.805,6.029,-0.046,0.03,0.006,102.0,103.0,100.0,13.4,1505.2,323.6,-0.8,1.9,2471.459,13.29,0.054,303.1
2023-09-08T07:49:03,42.805,6.029,-0.049,0.039,-0.01,104.0,102.0,100.0,13.3,1505.2,330.7,-0.7,1.8,2471.449,13.29,0.062,308.5
2023-09-08T07:52:03,42.805,6.029,-0.023,0.048,0.005,101.0,102.0,101.0,13.4,1505.2,349.3,-0.8,1.8,2471.476,13.29,0.053,334.4
2023-09-08T07:55:03,42.805,6.029,-0.05,0.049,-0.022,102.0,102.0,102.0,13.3,1505.2,343.0,-0.8,1.8,2471.449,13.29,0.07,314.4
2023-09-08T07:58:03,42.805,6.029,-0.031,0.0,-0.069,102.0,102.0,101.0,13.4,1505.2,336.1,-0.7,1.8,2471.45,13.29,0.03,270.0
2023-09-08T08:04:03,42.805,6.029,-0.056,0.021,-0.021,102.0,102.0,101.0,13.3,1505.2,326.0,-0.8,1.8,2471.528,13.28,0.059,290.6
2023-09-08T08:07:03,42.805,6.029,-0.051,0.022,-0.037,102.0,103.0,101.0,13.4,1505.2,329.7,-0.8,1.8,2471.474,13.28,0.055,293.3
2023-09-08T08:10:03,42.805,6.029,-0.052,0.037,-0.011,102.0,101.0,101.0,13.4,1505.2,339.3,-0.8,1.8,2471.473,13.29,0.063,305.4
2023-09-08T08:13:03,42.805,6.029,-0.042,0.036,-0.022,103.0,102.0,100.0,13.3,1505.2,348.4,-0.8,1.8,2471.48,13.29,0.055,310.6
2023-09-08T08:16:03,42.805,6.029,-0.021,0.034,-0.038,103.0,103.0,101.0,13.4,1505.2,351.0,-0.8,1.8,2471.484,13.29,0.039,328.3
2023-09-08T08:19:03,42.805,6.029,-0.046,0.032,-0.006,102.0,102.0,101.0,13.4,1505.2,334.8,-0.8,1.8,2471.44,13.29,0.056,304.8
2023-09-08T08:22:03,42.805,6.029,-0.022,0.008,-0.021,102.0,102.0,101.0,13.4,1505.2,324.7,-0.8,1.8,2471.466,13.29,0.023,290.0
2023-09-08T08:25:03,42.805,6.029,-0.034,0.026,-0.005,102.0,102.0,101.0,13.4,1505.2,333.4,-0.7,1.8,2471.502,13.29,0.042,307.4
2023-09-08T08:28:03,42.805,6.029,-0.034,0.039,-0.055,103.0,102.0,100.0,13.3,1505.2,354.2,-0.8,1.8,2471.444,13.29,0.051,318.9
2023-09-08T08:31:03,42.805,6.029,-0.04,0.017,-0.022,103.0,102.0,101.0,13.4,1505.2,328.2,-0.8,1.8,2471.471,13.29,0.043,293.0
2023-09-08T08:34:03,42.805,6.029,-0.056,0.041,-0.014,101.0,103.0,102.0,13.4,1505.2,336.9,-0.8,1.8,2471.481,13.29,0.069,306.2
2023-09-08T08:37:03,42.805,6.029,-0.054,0.04,0.0,104.0,102.0,101.0,13.4,1505.2,327.0,-0.8,1.8,2471.455,13.29,0.067,306.5
2023-09-08T08:40:03,42.805,6.029,-0.05,0.034,-0.015,102.0,101.0,102.0,13.4,1505.2,333.9,-0.8,1.8,2471.468,13.29,0.06,304.2
2023-09-08T08:43:03,42.805,6.029,-0.039,0.014,-0.032,104.0,102.0,101.0,13.4,1505.2,336.8,-0.8,1.8,2471.435,13.29,0.041,289.7
2023-09-08T08:46:03,42.805,6.029,-0.062,0.03,-0.013,103.0,104.0,102.0,13.4,1505.2,326.3,-0.8,1.8,2471.482,13.29,0.068,295.8
2023-09-08T08:49:03,42.805,6.029,-0.039,0.026,-0.031,103.0,103.0,101.0,13.4,1505.2,343.8,-0.7,1.9,2471.469,13.29,0.046,303.7
2023-09-08T08:52:03,42.805,6.029,-0.01,0.035,-0.011,103.0,103.0,101.0,13.4,1505.2,352.3,-0.7,1.7,2471.485,13.29,0.036,344.1
2023-09-08T08:55:03,42.805,6.029,-0.061,0.066,-0.016,102.0,103.0,101.0,13.4,1505.2,350.5,-0.8,1.8,2471.425,13.29,0.089,317.3
2023-09-08T08:58:03,42.805,6.029,-0.055,0.023,-0.052,103.0,103.0,102.0,13.4,1505.2,333.8,-0.7,1.8,2471.497,13.29,0.059,292.7
2023-09-08T09:04:03,42.805,6.029,-0.045,0.049,-0.036,101.0,103.0,102.0,13.4,1505.2,332.5,-0.8,1.8,2471.49,13.28,0.066,317.4
2023-09-08T09:07:03,42.805,6.029,-0.061,0.051,-0.003,102.0,103.0,102.0,13.4,1505.2,333.8,-0.7,1.8,2471.536,13.29,0.079,309.9
2023-09-08T09:10:03,42.805,6.029,-0.032,0.017,-0.037,104.0,102.0,101.0,13.3,1505.2,342.8,-0.8,1.8,2471.5,13.29,0.036,298.0
2023-09-08T09:13:03,42.805,6.029,-0.044,0.019,-0.033,102.0,103.0,101.0,13.4,1505.2,339.7,-0.8,1.8,2471.486,13.29,0.047,293.4
2023-09-08T09:16:03,42.805,6.029,-0.026,0.029,0.012,103.0,104.0,101.0,13.4,1505.2,337.6,-0.8,1.8,2471.495,13.29,0.038,318.1
2023-09-08T09:19:03,42.805,6.029,-0.028,0.029,-0.028,102.0,102.0,102.0,13.4,1505.2,343.0,-0.8,1.9,2471.476,13.29,0.04,316.0
2023-09-08T09:22:03,42.805,6.029,-0.033,0.009,-0.015,102.0,103.0,101.0,13.3,1505.2,333.4,-0.8,1.8,2471.482,13.29,0.034,285.3
2023-09-08T09:25:03,42.805,6.029,-0.031,0.027,-0.049,103.0,102.0,103.0,13.3,1505.2,326.3,-0.8,1.8,2471.482,13.29,0.041,311.1
2023-09-08T09:28:03,42.805,6.029,-0.041,0.042,0.012,103.0,103.0,101.0,13.4,1505.2,334.4,-0.8,1.8,2471.458,13.29,0.058,315.7
2023-09-08T09:31:03,42.805,6.029,-0.043,0.047,-0.018,102.0,103.0,101.0,13.4,1505.2,338.7,-0.7,1.8,2471.452,13.29,0.063,317.5
2023-09-08T09:34:03,42.805,6.029,-0.052,0.033,-0.022,103.0,102.0,101.0,13.4,1505.2,333.8,-0.8,1.8,2471.459,13.29,0.061,302.4
2023-09-08T09:37:03,42.805,6.029,-0.032,0.025,-0.01,104.0,101.0,101.0,13.4,1505.2,337.8,-0.7,1.8,2471.442,13.29,0.04,308.0
2023-09-08T09:40:03,42.805,6.029,-0.053,0.062,-0.016,103.0,103.0,102.0,13.3,1505.2,346.2,-0.7,1.8,2471.501,13.29,0.081,319.5
2023-09-08T09:43:03,42.805,6.029,-0.041,0.067,-0.011,103.0,103.0,101.0,13.4,1505.2,351.4,-0.8,1.8,2471.499,13.29,0.078,328.5
2023-09-08T09:46:03,42.805,6.029,-0.025,0.041,-0.038,104.0,101.0,102.0,13.4,1505.2,345.1,-0.8,1.8,2471.474,13.29,0.048,328.6
2023-09-08T09:49:03,42.805,6.029,-0.035,0.026,-0.038,104.0,102.0,101.0,13.4,1505.2,323.6,-0.8,1.8,2471.477,13.29,0.043,306.6
2023-09-08T09:52:03,42.805,6.029,-0.035,0.037,-0.016,103.0,103.0,102.0,13.3,1505.2,336.9,-0.8,1.8,2471.508,13.29,0.05,316.6
2023-09-08T09:55:03,42.805,6.029,-0.042,0.041,-0.039,103.0,103.0,101.0,13.3,1505.2,344.5,-0.8,1.8,2471.512,13.29,0.058,314.3
2023-09-08T09:58:03,42.805,6.029,-0.044,0.012,-0.044,103.0,103.0,101.0,13.3,1505.2,326.0,-0.8,1.8,2471.504,13.29,0.045,285.3
2023-09-08T10:04:03,42.805,6.029,-0.048,0.048,-0.015,102.0,101.0,103.0,13.4,1505.2,338.0,-0.8,1.8,2471.527,13.28,0.067,315.0
2023-09-08T10:07:03,42.805,6.029,-0.069,0.008,-0.034,103.0,103.0,102.0,13.4,1505.2,325.5,-0.8,1.8,2471.516,13.29,0.069,276.6
2023-09-08T10:10:03,42.805,6.029,-0.059,0.013,-0.044,103.0,102.0,102.0,13.3,1505.2,324.0,-0.8,1.8,2471.536,13.29,0.06,282.4
2023-09-08T10:13:03,42.805,6.029,-0.052,0.056,-0.054,103.0,103.0,101.0,13.4,1505.2,350.7,-0.8,1.8,2471.501,13.29,0.076,317.1
2023-09-08T10:16:03,42.805,6.029,-0.068,0.038,-0.027,102.0,104.0,102.0,13.4,1505.2,324.0,-0.8,1.8,2471.508,13.29,0.077,299.2
2023-09-08T10:19:03,42.805,6.029,-0.042,0.003,-0.067,102.0,102.0,102.0,13.4,1505.2,329.3,-0.8,1.8,2471.524,13.29,0.042,274.1
2023-09-08T10:22:03,42.805,6.029,-0.047,0.044,-0.004,105.0,101.0,102.0,13.4,1505.2,341.2,-0.8,1.8,2471.504,13.29,0.064,313.1
2023-09-08T10:25:03,42.805,6.029,-0.055,0.041,-0.029,103.0,103.0,102.0,13.4,1505.2,338.7,-0.8,1.8,2471.489,13.29,0.068,306.7
2023-09-08T10:28:03,42.805,6.029,-0.046,0.013,-0.006,103.0,102.0,102.0,13.4,1505.2,334.2,-0.8,1.8,2471.503,13.29,0.047,285.8
2023-09-08T10:31:03,42.805,6.029,-0.046,0.037,-0.014,103.0,103.0,101.0,13.3,1505.2,335.5,-0.8,1.8,2471.542,13.29,0.059,308.8
2023-09-08T10:34:03,42.805,6.029,-0.037,0.007,-0.031,104.0,104.0,101.0,13.4,1505.2,333.4,-0.8,1.8,2471.516,13.29,0.037,280.7
2023-09-08T10:37:03,42.805,6.029,-0.064,0.025,-0.045,103.0,102.0,102.0,13.4,1505.2,341.2,-0.8,1.8,2471.499,13.29,0.068,291.3
2023-09-08T10:40:03,42.805,6.029,-0.034,0.036,-0.028,103.0,101.0,102.0,13.4,1505.2,340.9,-0.7,1.8,2471.492,13.29,0.049,316.6
2023-09-08T10:43:03,42.805,6.029,-0.06,0.022,-0.051,103.0,103.0,102.0,13.4,1505.2,325.2,-0.8,1.8,2471.468,13.29,0.063,290.1
2023-09-08T10:46:03,42.805,6.029,-0.053,0.037,-0.039,103.0,103.0,102.0,13.4,1505.2,332.4,-0.7,1.8,2471.471,13.29,0.064,304.9
2023-09-08T10:49:03,42.805,6.029,-0.041,0.04,0.003,103.0,103.0,101.0,13.4,1505.2,347.7,-0.8,1.8,2471.508,13.29,0.057,314.3
2023-09-08T10:52:03,42.805,6.029,-0.041,0.043,-0.037,104.0,103.0,102.0,13.3,1505.2,353.2,-0.7,1.8,2471.516,13.29,0.059,316.4